Ozark, AL

11:38 PM CDT on May 26, 2018 (GMT -0500)
Cairns Army Air Field

Weather History for KOZR - November, 2012

Change the Weather History Date:

Saturday, November 10, 2012

  Actual Average Record
Temperature  
Mean Temperature 54 °F -  
Max Temperature 72 °F 68 °F 82 °F (1998)
Min Temperature 37 °F 46 °F 35 °F (1996)
Degree Days  
Heating Degree Days 10    
Growing Degree Days 4 (Base 50)    
Moisture  
Dew Point 40 °F    
Average Humidity 63    
Maximum Humidity 95    
Minimum Humidity 26    
Precipitation  
Precipitation 0.00 in - - ()
Sea Level Pressure  
Sea Level Pressure 30.29 in    
Wind  
Wind Speed 4 mph (East)    
Max Wind Speed 9 mph    
Max Gust Speed -    
Visibility 10 miles    
Events      
Averages and records for this station are not official NWS values.
T = Trace of Precipitation, MM = Missing Value Source: NWS Daily Summary

Daily Weather History Graph

Daily Weather History Graph

Search for Another Location

Airport or City:

Astronomy

Nov. 10, 2012 Rise Set
Actual Time 6:06 AM CST 4:46 PM CST
Civil Twilight 5:40 AM CST 5:12 PM CST
Nautical Twilight 5:11 AM CST 5:41 PM CST
Astronomical Twilight 4:43 AM CST 6:10 PM CST
Moon 2:23 AM CST (11/10) 2:22 PM CST (11/10)
Length of Visible Light 11h 31m
Length of Day
10h 40m
Waning Crescent, 14% of the Moon is Illuminated
Nov 10
Waning Crescent
Nov 13
New
Nov 20
First Quarter
Nov 28
Full
Dec 6
Last Quarter

Hourly Weather History & Observations

Time (CST) Temp. Windchill Dew Point Humidity Pressure Visibility Wind Dir Wind Speed Gust Speed Precip Events Conditions
12:55 AM 43.5 °F 41.9 °F 40.3 °F 88% 30.26 in 10.0 mi NNE 3.5 mph - N/A   Clear
1:55 AM 40.8 °F 38.8 °F 39.4 °F 95% 30.27 in 10.0 mi SSE 3.5 mph - N/A   Clear
2:55 AM 40.8 °F - 37.8 °F 89% 30.27 in 10.0 mi Calm Calm - N/A   Clear
3:55 AM 40.5 °F 38.4 °F 38.1 °F 91% 30.27 in 10.0 mi North 3.5 mph - N/A   Clear
4:55 AM 39.6 °F 37.4 °F 37.8 °F 93% 30.29 in 10.0 mi NNE 3.5 mph - N/A   Clear
5:55 AM 37.6 °F 34.0 °F 36.0 °F 94% 30.30 in 10.0 mi NE 4.6 mph - N/A   Clear
6:55 AM 40.5 °F 38.4 °F 38.8 °F 94% 30.32 in 10.0 mi NE 3.5 mph - N/A   Clear
7:55 AM 49.3 °F - 43.5 °F 81% 30.34 in 10.0 mi NE 3.5 mph - N/A   Clear
8:55 AM 57.9 °F - 45.0 °F 62% 30.34 in 10.0 mi Variable 3.5 mph - N/A   Clear
9:55 AM 66.2 °F - 44.6 °F 46% 30.35 in 10.0 mi Calm Calm - N/A   Clear
10:55 AM 70.2 °F - 39.4 °F 33% 30.33 in 10.0 mi SSE 9.2 mph - N/A   Clear
11:55 AM 71.2 °F - 37.4 °F 29% 30.30 in 10.0 mi Variable 3.5 mph - N/A   Clear
12:55 PM 72.9 °F - 37.4 °F 28% 30.27 in 10.0 mi SSE 8.1 mph - N/A   Clear
1:55 PM 72.5 °F - 36.0 °F 26% 30.26 in 10.0 mi ESE 4.6 mph - N/A   Clear
2:55 PM 72.9 °F - 38.7 °F 29% 30.25 in 10.0 mi SSE 5.8 mph - N/A   Clear
3:55 PM 71.4 °F - 40.5 °F 33% 30.27 in 10.0 mi ESE 5.8 mph - N/A   Clear
4:55 PM 65.7 °F - 41.9 °F 42% 30.27 in 10.0 mi SE 3.5 mph - N/A   Clear
5:55 PM 58.5 °F - 42.1 °F 55% 30.28 in 10.0 mi ESE 4.6 mph - N/A   Clear
6:55 PM 55.6 °F - 42.6 °F 62% 30.29 in 10.0 mi East 3.5 mph - N/A   Clear
7:55 PM 54.1 °F - 41.2 °F 62% 30.29 in 10.0 mi ESE 4.6 mph - N/A   Clear
8:55 PM 55.6 °F - 40.6 °F 57% 30.31 in 10.0 mi Calm Calm - N/A   Clear
9:55 PM 51.6 °F - 40.6 °F 66% 30.31 in 10.0 mi SE 3.5 mph - N/A   Clear
10:55 PM 49.1 °F - 41.0 °F 74% 30.30 in 10.0 mi Calm Calm - N/A   Clear
11:55 PM 46.2 °F 44.1 °F 40.8 °F 81% 30.29 in 10.0 mi NE 4.6 mph - N/A   Clear